Terminal Aerodrome Forecast
Issued by NWS Lubbock, TX

Home | Current Version | Previous Version | Text Only | Print | Product List | Glossary On
Versions: 1 2 3 4 5 6 7 8 9 10 11 12 13 14 15 16 17 18 19 20 21 22 23 24 25
540
FTUS44 KLUB 032201 AAE
TAFLBB
TAF AMD
KLBB 032201Z 0322/0418 05010KT P6SM VCTS SCT070CB BKN100
     FM040100 35008KT P6SM SKC=

USA.gov is the U.S. government's official web portal to all federal, state and local government web resources and services.